Le nostre stazioni meteo in Italia

Pubblicità
Il mio iltempo24.it
Mt. St.Vincent, Francia (7382): Temperatura & dewpoint: 13.06.2019 01:00:00 - 19.06.2019 01:00:00 (CEST)Mt. St.Vincent, Francia (7382): velocità del vento & gusts: 13.06.2019 01:00:00 - 19.06.2019 01:00:00 (CEST)Mt. St.Vincent, Francia (7382): direzione del vento: 13.06.2019 01:00:00 - 19.06.2019 01:00:00 (CEST)Mt. St.Vincent, Francia (7382): ore di luce: 13.06.2019 01:00:00 - 19.06.2019 01:00:00 (CEST)Mt. St.Vincent, Francia (7382): precipitazioni: 13.06.2019 01:00:00 - 19.06.2019 01:00:00 (CEST)
Data & Tempo tt [°C] td [°C] ff [km/h] ff [kn] fx [km/h] fx [kn] dd sd [min] rr [mm]
19.06.2019 01:00:00 21,6 7,4 18 10 29 16 S 0 0,0
19.06.2019 00:00:00 22,2 9,7 21 11 34 18 SSE 0 0,0
18.06.2019 23:00:00 23,1 10,2 22 12 31 17 SSE 0 0,0
18.06.2019 22:00:00 22,8 9,2 16 9 24 13 SE 0 0,0
18.06.2019 21:00:00 23,3 10,4 16 9 26 14 ESE 18 0,0
18.06.2019 20:00:00 24,2 11,8 16 9 29 16 ESE 54 -
18.06.2019 19:00:00 25,2 13,4 18 10 29 16 SE 36 0,0
18.06.2019 18:00:00 24,6 13,8 15 8 24 13 ESE 6 0,0
18.06.2019 17:00:00 24,5 15,1 11 6 29 16 SE 18 0,0
18.06.2019 16:00:00 25,7 15,4 16 9 31 17 ESE 36 0,0
18.06.2019 15:00:00 25,7 13,9 16 9 31 17 ESE 30 0,0
18.06.2019 14:00:00 26,2 15,6 13 7 28 15 ESE 48 -
18.06.2019 13:00:00 24,6 15,8 15 8 31 17 ESE 54 0,0
18.06.2019 12:00:00 23,2 16,5 22 12 31 17 ESE 42 0,0
18.06.2019 11:00:00 20,9 15,2 18 10 26 14 E 24 0,0
18.06.2019 10:00:00 20,2 15,0 18 10 29 16 ESE 36 0,0
18.06.2019 09:00:00 20,4 14,1 18 10 28 15 ESE 42 0,0
18.06.2019 08:00:00 19,3 13,9 18 10 26 14 ESE 36 -
18.06.2019 07:00:00 19,0 13,6 13 7 18 10 ESE 48 0,0
18.06.2019 06:00:00 16,9 11,8 13 7 16 9 E 0 0,0
18.06.2019 05:00:00 17,7 12,4 13 7 15 8 E 0 0,0
18.06.2019 04:00:00 18,2 12,2 11 6 18 10 E 0 0,0
18.06.2019 03:00:00 17,9 12,1 13 7 18 10 E 0 0,0
18.06.2019 02:00:00 18,4 12,2 15 8 22 12 E 0 -
18.06.2019 01:00:00 18,6 12,1 15 8 22 12 ENE 0 0,0
18.06.2019 00:00:00 19,0 11,8 15 8 24 13 ENE 0 0,0
17.06.2019 23:00:00 19,3 11,6 11 6 21 11 ENE 0 0,0
17.06.2019 22:00:00 19,6 11,9 11 6 13 7 ENE 0 0,0
17.06.2019 21:00:00 21,0 11,9 9 5 15 8 NE 36 0,0
17.06.2019 20:00:00 22,1 12,4 8 4 16 9 NE 60 -
17.06.2019 19:00:00 23,8 12,7 8 4 15 8 NE 60 0,0
17.06.2019 18:00:00 24,3 12,6 5 3 21 11 N 60 0,0
17.06.2019 17:00:00 24,7 14,2 5 3 21 11 ENE 60 0,0
17.06.2019 16:00:00 23,6 14,9 8 4 22 12 ENE 60 0,0
17.06.2019 15:00:00 23,6 14,6 8 4 24 13 ENE 60 0,0
17.06.2019 14:00:00 22,8 14,4 11 6 29 16 ENE 60 -
17.06.2019 13:00:00 22,2 14,3 13 7 26 14 NE 60 0,0
17.06.2019 12:00:00 21,3 13,5 9 5 21 11 NE 60 0,0
17.06.2019 11:00:00 20,6 14,5 8 4 22 12 N 60 0,0
17.06.2019 10:00:00 18,7 13,3 11 6 29 16 NE 60 0,0
17.06.2019 09:00:00 17,5 12,4 13 7 35 19 NE 60 0,0
17.06.2019 08:00:00 16,0 11,4 16 9 35 19 NE 60 -
17.06.2019 07:00:00 14,6 11,0 22 12 39 21 NE 48 0,0
17.06.2019 06:00:00 13,3 10,5 22 12 34 18 ENE 0 0,0
17.06.2019 05:00:00 13,0 9,6 16 9 37 20 ENE 0 0,0
17.06.2019 04:00:00 14,5 9,1 18 10 39 21 NE 0 0,0
17.06.2019 03:00:00 14,4 9,2 16 9 34 18 NE 0 0,0
17.06.2019 02:00:00 14,9 9,5 16 9 35 19 NE 0 -
17.06.2019 01:00:00 15,2 9,5 15 8 34 18 NE 0 0,0
17.06.2019 00:00:00 15,6 9,5 16 9 34 18 NE 0 0,0
16.06.2019 23:00:00 15,9 10,0 16 9 34 18 NE 0 0,0
16.06.2019 22:00:00 16,0 10,3 18 10 29 16 NE 0 0,0
16.06.2019 21:00:00 16,8 10,9 16 9 28 15 ENE 36 0,0
16.06.2019 20:00:00 18,3 11,4 13 7 24 13 NE 60 -
16.06.2019 19:00:00 19,6 11,4 11 6 28 15 NE 60 0,0
16.06.2019 18:00:00 19,8 10,8 11 6 24 13 NE 60 0,0
16.06.2019 17:00:00 20,7 11,6 5 3 21 11 NNE 60 0,0
16.06.2019 16:00:00 20,9 11,0 4 2 16 9 ONO 60 0,0
16.06.2019 15:00:00 19,6 11,4 5 3 18 10 NNO 36 0,0
16.06.2019 14:00:00 18,9 10,2 5 3 15 8 NO 36 -
16.06.2019 13:00:00 17,1 10,7 4 2 13 7 NNE 36 0,0
16.06.2019 12:00:00 17,3 10,2 5 3 15 8 ONO 54 0,0
16.06.2019 11:00:00 16,1 11,5 5 3 15 8 NNO 60 0,0
16.06.2019 10:00:00 15,1 11,7 5 3 15 8 O 60 0,0
16.06.2019 09:00:00 12,5 10,0 8 4 18 10 ONO 60 0,0
16.06.2019 08:00:00 11,1 10,0 11 6 18 10 ONO 60 -
16.06.2019 07:00:00 10,0 9,7 9 5 18 10 O 48 0,0
16.06.2019 06:00:00 9,7 9,6 9 5 18 10 ONO 0 0,0
16.06.2019 05:00:00 9,8 9,3 15 8 26 14 O 0 0,0
16.06.2019 04:00:00 10,3 9,2 16 9 28 15 O 0 0,0
16.06.2019 03:00:00 10,9 9,2 16 9 24 13 O 0 0,0
16.06.2019 02:00:00 11,0 9,6 15 8 22 12 O 0 -
16.06.2019 01:00:00 10,9 9,7 15 8 29 16 O 0 0,0
16.06.2019 00:00:00 11,2 10,1 18 10 31 17 O 0 0,0
15.06.2019 23:00:00 11,4 10,8 22 12 29 16 O 0 0,0
15.06.2019 22:00:00 11,3 10,5 18 10 28 15 O 0 0,0
15.06.2019 21:00:00 11,9 11,6 18 10 37 20 O 0 4,0
15.06.2019 20:00:00 13,8 13,2 11 6 24 13 O 12 -
15.06.2019 19:00:00 14,4 13,3 13 7 28 15 O 18 0,0
15.06.2019 18:00:00 14,0 13,7 5 3 28 15 NO 0 0,0
15.06.2019 17:00:00 13,3 13,3 18 10 35 19 ONO 0 0,8
15.06.2019 16:00:00 13,9 13,7 15 8 26 14 O 0 0,6
15.06.2019 15:00:00 13,9 13,7 13 7 34 18 O 0 2,0
15.06.2019 14:00:00 14,9 13,1 18 10 28 15 O 0 -
15.06.2019 13:00:00 16,5 14,0 9 5 24 13 ONO 6 0,0
15.06.2019 12:00:00 16,1 13,8 11 6 24 13 O 12 0,0
15.06.2019 11:00:00 14,0 13,2 13 7 29 16 O 0 0,0
15.06.2019 10:00:00 12,9 12,9 18 10 29 16 O 0 0,0
15.06.2019 09:00:00 12,4 12,4 18 10 29 16 O 0 0,0
15.06.2019 08:00:00 12,2 12,2 18 10 34 18 O 0 -
15.06.2019 07:00:00 12,0 12,0 18 10 34 18 O 0 0,0
15.06.2019 06:00:00 11,6 11,6 21 11 34 18 O 0 0,0
15.06.2019 05:00:00 11,4 11,4 18 10 28 15 OSO 0 0,0
15.06.2019 04:00:00 11,5 11,5 18 10 35 19 OSO 0 0,0
15.06.2019 03:00:00 11,8 11,8 26 14 41 22 O 0 0,0
15.06.2019 02:00:00 11,9 11,9 15 8 26 14 SO 0 -
15.06.2019 01:00:00 12,0 12,0 15 8 44 24 O 0 1,0
15.06.2019 00:00:00 12,1 12,1 31 17 68 37 O 0 8,0
14.06.2019 23:00:00 13,6 13,6 31 17 46 25 O 0 2,0
14.06.2019 22:00:00 14,1 13,9 11 6 21 11 O 0 0,0
14.06.2019 21:00:00 14,4 13,8 8 4 22 12 NNO 6 0,2
14.06.2019 20:00:00 14,7 14,1 8 4 22 12 N 0 -
14.06.2019 19:00:00 14,7 14,2 13 7 24 13 O 0 0,0
14.06.2019 18:00:00 14,3 14,0 8 4 16 9 ENE 0 0,0
14.06.2019 17:00:00 14,3 13,8 13 7 22 12 E 0 0,0
14.06.2019 16:00:00 15,6 14,3 8 4 26 14 E 6 0,0
14.06.2019 15:00:00 13,3 12,8 18 10 28 15 ONO 0 0,8
14.06.2019 14:00:00 12,6 11,7 15 8 29 16 SE 0 -
14.06.2019 13:00:00 12,6 10,5 22 12 48 26 ESE 0 0,0
14.06.2019 12:00:00 13,3 10,1 26 14 42 23 E 0 0,0
14.06.2019 11:00:00 15,9 8,9 22 12 31 17 E 0 0,0
14.06.2019 10:00:00 15,9 8,6 8 4 22 12 E 0 0,0
14.06.2019 09:00:00 14,8 9,2 13 7 22 12 ENE 0 0,0
14.06.2019 08:00:00 15,9 5,8 5 3 28 15 OSO 0 -
14.06.2019 07:00:00 16,3 4,0 15 8 24 13 O 0 0,0
14.06.2019 06:00:00 16,7 4,0 16 9 26 14 OSO 0 0,0
14.06.2019 05:00:00 17,2 3,5 15 8 24 13 SSE 0 0,0
14.06.2019 04:00:00 16,8 4,1 18 10 35 19 SE 0 0,0
14.06.2019 03:00:00 16,7 3,7 21 11 35 19 ESE 0 0,0
14.06.2019 02:00:00 18,4 2,2 24 13 44 24 SO 0 -
14.06.2019 01:00:00 18,5 3,1 29 16 46 25 SO 0 0,0
14.06.2019 00:00:00 18,5 4,6 24 13 48 26 SO 0 0,0
13.06.2019 23:00:00 19,9 4,4 29 16 44 24 SSO 0 0,0
13.06.2019 22:00:00 19,5 4,0 21 11 35 19 SSE 0 0,0
13.06.2019 21:00:00 20,0 4,1 21 11 34 18 SE 12 0,0
13.06.2019 20:00:00 20,0 5,2 18 10 41 22 ESE 24 -
13.06.2019 19:00:00 20,7 5,1 28 15 44 24 ESE 30 0,0
13.06.2019 18:00:00 21,5 5,4 26 14 41 22 ESE 30 0,0
13.06.2019 17:00:00 20,2 5,8 22 12 44 24 ESE 24 0,0
13.06.2019 16:00:00 21,3 6,0 26 14 46 25 SE 60 0,0
13.06.2019 15:00:00 20,8 6,0 28 15 52 28 ESE 60 0,0
13.06.2019 14:00:00 20,5 6,8 21 11 37 20 SE 60 -
13.06.2019 13:00:00 19,2 6,6 22 12 37 20 ESE 60 0,0
13.06.2019 12:00:00 18,2 7,0 21 11 35 19 ESE 60 0,0
13.06.2019 11:00:00 16,7 7,3 16 9 28 15 SE 60 0,0
13.06.2019 10:00:00 16,1 5,4 13 7 24 13 ESE 60 0,0
13.06.2019 09:00:00 14,2 5,8 9 5 16 9 SSE 60 0,0
13.06.2019 08:00:00 12,7 6,3 8 4 15 8 S 60 -
13.06.2019 07:00:00 11,5 6,0 11 6 18 10 SSE 48 0,0
13.06.2019 06:00:00 10,4 5,4 11 6 16 9 SSE 0 0,0
13.06.2019 05:00:00 9,3 5,8 11 6 16 9 SE 0 0,0
13.06.2019 04:00:00 9,4 5,8 11 6 28 15 SO 0 0,0
13.06.2019 03:00:00 9,2 6,1 16 9 34 18 OSO 0 0,0
13.06.2019 02:00:00 9,5 6,4 22 12 34 18 O 0 -
13.06.2019 01:00:00 9,8 6,7 21 11 37 20 O 0 0,0

tt = Temperatura
td = dewpoint
ff = velocità del vento
fx = gusts
dd = direzione del vento
sd = ore di luce
rr = precipitazioni

Stazioni seguenti

WeatherPro
AMSI
MeteoEarth